EB FORSYTHE NJ US current weather conditions

sailwx.info

Wind from 095 at 6 knots gusting 9

Air temperature 26.7° C
Dewpoint 21.2° C

Last reported at 2020-Jul-04 20:25 UTC.
Time now 2020-Jul-04 21:52 UTC

Location: N 39°28' W 074°27'.
View on Google Maps.

See reports from other nearby stations

  
Tides and Currents Weather Stations Pressure Air Temp Water Temp Dewpoint Dewpoint Depression Visibility Wind Speed Wind Dir Waves Ship Positions
date/time (UTC)wind fromknots sea level pressurealtimeterstation pressurevisibilityair tempwater tempwave heightnotes
2020-Jul-04 20:25 095 6 gusting 9 26.7
2020-Jul-04 19:25 082 6 gusting 9 26.7
2020-Jul-04 18:25 092 5 gusting 9 26.7
2020-Jul-04 17:25 080 6 gusting 10 26.1
2020-Jul-04 16:25 067 5 gusting 7 24.4
2020-Jul-04 15:25 051 3 gusting 8 23.9
2020-Jul-04 14:25 059 4 gusting 9 23.3
2020-Jul-04 13:25 064 4 gusting 7 22.8
2020-Jul-04 12:25 027 2 gusting 8 22.8
2020-Jul-04 11:25 009 4 gusting 8 22.8
2020-Jul-04 10:25 067 4 gusting 10 22.8
2020-Jul-04 09:25 062 5 gusting 10 22.8
2020-Jul-04 08:25 055 5 gusting 10 22.8
2020-Jul-04 07:25 052 3 gusting 7 22.8
2020-Jul-04 06:25 003 2 gusting 4 22.2
2020-Jul-04 05:25 21.1
2020-Jul-04 04:25 008 1 gusting 6 22.2
2020-Jul-04 03:25 006 2 gusting 19 21.7
2020-Jul-04 02:25 127 6 gusting 10 25.0
2020-Jul-04 01:25 153 6 gusting 9 25.0
2020-Jul-04 00:25 148 4 gusting 9 25.6
2020-Jul-03 23:25 143 6 gusting 8 27.2
2020-Jul-03 22:25 139 6 gusting 7 28.9
2020-Jul-03 21:25 116 4 gusting 9 29.4
2020-Jul-03 20:25 120 6 gusting 9 30.6
2020-Jul-03 19:25 096 6 gusting 11 30.0
2020-Jul-03 18:25 097 6 gusting 10 31.7
2020-Jul-03 17:25 100 6 gusting 8 32.8
2020-Jul-03 16:25 041 3 gusting 6 33.3
2020-Jul-03 15:25 015 3 gusting 8 32.8
2020-Jul-03 14:25 342 5 gusting 9 31.1
2020-Jul-03 13:25 341 4 gusting 12 30.0
2020-Jul-03 12:25 311 4 gusting 10 27.2
2020-Jul-03 11:25 297 4 gusting 6 24.4
2020-Jul-03 10:25 284 3 gusting 6 22.2
2020-Jul-03 09:25 284 3 gusting 6 21.7
2020-Jul-03 08:25 286 2 gusting 6 21.7
2020-Jul-03 07:25 276 2 gusting 7 22.2
2020-Jul-03 06:25 287 3 gusting 6 22.8
2020-Jul-03 05:25 285 3 gusting 6 23.3
2020-Jul-03 04:25 274 3 gusting 7 23.9
2020-Jul-03 03:25 274 3 gusting 6 23.9
2020-Jul-03 02:25 280 2 gusting 6 23.9
2020-Jul-03 01:25 252 3 gusting 6 26.1
2020-Jul-03 00:25 253 2 gusting 5 26.1
2020-Jul-02 23:25 207 2 gusting 6 27.8
2020-Jul-02 22:25 202 3 gusting 9 28.3
2020-Jul-02 21:25 196 6 gusting 14 27.8